FENGYUN 1C DEB

Satellite information

Favourite Embed

Satellite Type and Status

DEBRISIN ORBIT

Key statistics

Satellite FENGYUN 1C DEB at a glance.

Uptime

9618

Days in orbit

Revolutions

≈ 14.6

Per day

Orbit

SSO

Sun Synchronous Orbit

Inclination

99.3

Latest

Satellite identification and parameters

Extended collection of information and parameters for FENGYUN 1C DEB.

Object identification

Identified? True

Debris? True

Object name: FENGYUN 1C DEB

International designator: 1999-025ANL

Object number (NORAD): 30629

Object ID (CCSDS): 30629

Country: PEOPLES REPUBLIC OF CHINA (PRC)

Current information (Y/N): Y

RCS size: SMALL

Orbital parameters

Period: 98.896 minutes

Inclination: 99.2549 deg

SMA: 7084.027 km

Apoapsis: 712.052 km

Periapsis: 699.732 km

RAAN: 336.0231 deg

Eccentricy: 0.00086951

Argument of periapsis: 134.8641 deg

Mean anomaly: 356.3964 deg

Mean motion: 14.56070656 rev/day

Mean motion (dot): 0.0001314 rev/day2

B* drag term: 0.0029871375 1/REarth

Two-line elements (TLE)

Creation date: Sept. 8, 2025, 3:16 a.m.

Reference frame: TEME

Reference center: EARTH

Epoch: Sept. 7, 2025, 5:52 p.m. UTC

TLE line 0: 0 FENGYUN 1C DEB

TLE line 1: 1 30629U 99025ANL 25250.74448932 .00013140 00000-0 29871-2 0 9998

TLE line 2: 2 30629 99.2549 336.0231 0008695 134.8641 356.3964 14.56070656964918

Live tracking on map

Real-time ground track for satellite FENGYUN 1C DEB.

In-orbit conjunctions

A list of the most updated potential collisions computed for object FENGYUN 1C DEB.

Target Orbit TCA Probability of collision Miss distance Type
COSMOS 192 LEO 2025-05-30 08:04:21 0.000334229 745.0 (m) PAYLOAD
CZ-6A DEB LEO 2025-02-02 00:41:59 0.0002800968 419.0 (m) DEBRIS
COSMOS 2251 DEB LEO 2024-07-04 22:45:31 0.0002238978 109.0 (m) DEBRIS
IRIDIUM 71 LEO 2024-06-12 07:00:09 0.0001679921 991.0 (m) PAYLOAD

Associated space launch

Chinese polar orbiting meteorological satellite

FENGYUN 1C DEB was lifted into orbit during the mission ‘Long March 4B | Feng Yun 1C’, on board a Long March 4B space rocket.

The launch took place on May 10, 1999, 1:33 a.m. from Launch Complex 7.

For more information about the launch, click the button.

Launch to space Long March 4B | Feng Yun 1C
Long March 4B | Feng Yun 1C

Agency: N/A

Status: Launch Successful

Launch date: May 10, 1999, 1:33 a.m. UTC

Rocket: Long March 4B

Launch pad: Launch Complex 7

Location: Taiyuan Satellite Launch Center, People's Republic of China

...

Latest news about this satellite

There are no fresh news available about this satellite. Check back as we update our databases every day.


Newsletter sign-up

Weekly statistics, charts and insights to help you stay on top of the space industry.